Simultaneous Nadir Overpasses (SNOs) Predictions

Prediction of SNOs between FY3D and TERRA Satellite Orbit:

Table of predicted SNOs for the next 14.0 days since TLE Epoch: 11/16/2019
Index Date (FY3D) Time (FY3D) Lat,Lon (FY3D) SZA (FY3D ) Date (TERRA) Time (TERRA) Lat,Lon (TERRA) SZA (TERRA ) Distance(km) Time Diff (sec)
1 11/16/2019 13:25:58 68.79, -22.41 87.44 11/16/2019 13:26:45 68.79, -22.48 87.45 2.80 47
2 11/16/2019 14:16:40 -68.69, 145.03 92.65 11/16/2019 14:16:15 -68.68, 145.02 92.66 0.96 25
3 11/16/2019 15:07:05 67.59, -46.26 86.30 11/16/2019 15:05:59 67.62, -48.60 86.27 98.91 66
4 11/19/2019 05:42:24 68.80, 93.46 88.11 11/19/2019 05:43:13 68.81, 93.43 88.11 1.28 49
5 11/19/2019 06:33:06 -68.71, -99.09 91.99 11/19/2019 06:32:43 -68.71, -99.06 91.99 1.20 23
6 11/19/2019 07:23:31 67.67, 69.54 87.01 11/19/2019 07:22:24 67.75, 67.44 87.05 89.21 67
7 11/21/2019 21:58:49 68.82,-150.67 88.73 11/21/2019 21:59:40 68.83,-150.66 88.73 0.52 51
8 11/21/2019 22:49:31 -68.72, 16.78 91.37 11/21/2019 22:49:10 -68.73, 16.84 91.37 2.67 21
9 11/21/2019 23:39:59 67.79,-174.72 87.74 11/21/2019 23:38:51 67.82,-176.59 87.73 78.76 68
10 11/24/2019 14:15:15 68.84, -34.81 89.31 11/24/2019 14:16:08 68.84, -34.77 89.30 1.82 53
11 11/24/2019 15:05:56 -68.69, 132.72 90.84 11/24/2019 15:05:39 -68.68, 132.67 90.85 1.92 17
12 11/24/2019 15:56:26 67.87, -58.92 88.37 11/24/2019 15:55:17 67.95, -60.57 88.41 69.53 69
13 11/27/2019 06:31:40 68.81, 81.13 89.79 11/27/2019 06:32:36 68.84, 81.12 89.82 3.19 56
14 11/27/2019 07:22:22 -68.71,-111.42 90.31 11/27/2019 07:22:07 -68.69,-111.43 90.33 2.58 15
15 11/27/2019 08:12:53 67.94, 56.88 88.95 11/27/2019 08:11:44 68.01, 55.39 88.98 62.71 69
16 11/29/2019 22:48:06 68.83,-163.00 90.28 11/29/2019 22:49:04 68.84,-162.99 90.28 0.61 58
17 11/29/2019 23:38:46 -68.68, 4.52 89.87 11/29/2019 23:38:34 -68.69, 4.45 89.87 2.96 12
18 11/30/2019 00:29:19 68.02, 172.68 89.49 11/30/2019 00:28:09 68.11, 171.40 89.56 54.14 70




NCC Satellite Simultaneous Nadir Overpasses (SNOs) Prediction Service
